ネオワイズ彗星

C/2016 U1 ( NEOWISE )

English version
Home page
Updated on March 25, 2017

---------------------------------------------------------------------

・ プロフィール

発見日 2016年10月21日
発見光度 19等
発見者 Near-Earth Object Wide-field Infrared Survey Explorer

・ 写真集

・ 軌道要素

Epoch 2017 Jan. 7.0 TT = JDT 2457760.5
T 2017 Jan. 14.01665 TT                                 MPCW
q   0.3191692            (2000.0)            P               Q
z  -0.0008140      Peri.  162.74839     -0.63623687     +0.43618554
 +/-0.0000197      Node    61.42852     -0.76529801     -0.25250054
e   1.0002598      Incl.   46.43498     -0.09757869     -0.86370461
From 267 observations 2016 Oct. 27-2017 Jan. 12, mean residual 0".6.

・ 星図

・ 光度変化

        m1 = 10.0 + 5 logΔ + 30.0 log r  [   ,-43]  (              〜2016年12月 2日)
        m1 = 11.0 + 5 logΔ + 10.0 log r  [-43,  0]  (2016年12月 2日〜2017年 1月14日)
        m1 = 13.5 + 5 logΔ + 15.0 log r  [  0,   ]  (2017年 1月14日〜              )

---------------------------------------------------------------------

軌道要素はM.P.E.C. 2017-E59に掲載されたものです。
星図はステラナビゲータ Ver.10 (アストロアーツ) で作成したものです。
光度グラフはComet for Windowsで作成したものです。

---------------------------------------------------------------------

Copyright(C) Seiichi Yoshida (comet@aerith.net). All rights reserved.